[[{"header":{"parameterUnit":"m.s-1","parameterCategory":1,"la1":30.2991,"la2":30.254,"lo1":-89.0895,"lo2":-89.0444,"dy":0.0017,"dx":0.0017,"nx":28,"ny":28,"refTime":"2024-05-13T03:00:00:Z","depth":0,"parameterNumber":2,"parameterNumberName":"U-component_of_WINDS"},"data":[0,0,0,0,0,0,0,0,0,0,0,0,0,0,0,0,0,0,0,0,0,0,0,0,0,0,0,0,0,0,0,0,0,0,0,0,0,0,0,0,0,0,0,0,0,0,0,0,0,0,0,0,0,0,0,0,0,0,-2.5337,-2.5338,0,-2.5397,-2.5398,-2.5399,-2.5458,-2.5459,-2.546,-2.5461,-2.5523,-2.5524,-2.5525,0,0,0,0,0,0,0,0,0,0,0,0,0,-2.5272,-2.5273,-2.5337,-2.5338,-2.5338,-2.5397,-2.5398,-2.5399,-2.5458,-2.5459,-2.546,-2.5461,-2.5523,-2.5524,-2.5525,0,0,0,0,0,0,0,0,0,0,0,0,0,-2.5313,-2.5273,-2.5337,-2.5375,-2.5379,-2.5397,-2.5398,-2.5399,-2.5458,-2.5459,-2.546,-2.5462,-2.5523,-2.5524,-2.5525,-2.5511,0,0,-2.553,-2.553,0,0,0,0,0,0,0,0,-2.531,-2.5315,-2.5369,-2.5373,-2.5377,-2.5422,-2.5398,-2.5437,-2.5458,-2.5428,-2.5461,-2.5462,-2.5489,-2.5493,-2.5502,-2.5514,-2.5516,-2.553,-2.5531,-2.5531,-2.5532,0,0,0,0,0,0,0,-2.5308,-2.5313,-2.5361,-2.5369,-2.5375,-2.5389,-2.5396,-2.5406,-2.5451,-2.5431,-2.5435,-2.5442,-2.5491,-2.55,-2.5504,-2.5517,-2.553,-2.5531,-2.5532,-2.5532,-2.5517,-2.5515,0,0,0,0,0,0,-2.5299,-2.531,-2.5359,-2.5363,-2.5346,-2.5389,-2.5397,-2.5406,-2.5451,-2.5459,-2.5441,-2.5444,-2.5497,-2.5502,-2.5506,-2.5489,-2.5531,-2.5533,-2.5533,-2.5518,-2.5516,-2.5515,0,0,0,0,0,0,-2.5297,-2.5303,-2.5357,-2.5338,-2.5346,-2.5389,-2.5399,-2.5407,-2.5416,-2.5458,-2.5467,-2.5441,-2.5498,-2.5504,-2.5508,-2.5492,-2.5533,-2.5535,-2.5519,-2.5517,-2.5516,-2.5457,0,0,0,0,0,0,-2.5295,-2.5302,-2.5297,-2.5337,-2.5346,-2.5358,-2.5398,-2.5407,-2.5418,-2.5423,-2.5462,-2.5469,-2.55,-2.5506,-2.551,-2.5495,-2.5536,-2.5521,-2.5519,-2.5516,-2.546,-2.5453,-2.5447,0,0,0,0,0,-2.5293,-2.5279,-2.5297,-2.5302,-2.5341,-2.5357,-2.5362,-2.5398,-2.5417,-2.5412,-2.5438,-2.5468,-2.5494,-2.5506,-2.5511,-2.5496,-2.5522,-2.5519,-2.5516,-2.5463,-2.5455,-2.5447,0,0,0,0,0,0,-2.5237,-2.5285,-2.5305,-2.5304,-2.5326,-2.5367,-2.5362,-2.5388,-2.5405,-2.5409,-2.5452,-2.546,-2.5459,-2.5479,-2.5491,-2.5483,-2.5512,-2.551,-2.547,-2.5462,-2.5455,-2.545,-2.5537,0,0,0,0,0,-2.5225,-2.5233,-2.5275,-2.527,-2.528,-2.5319,-2.5327,-2.5352,-2.5376,-2.5386,-2.5414,-2.5436,-2.5449,-2.5457,-2.5471,-2.5464,-2.5472,-2.5456,-2.5449,-2.5444,-2.5441,-2.5435,-2.5428,-2.5506,-2.5506,-2.5506,0,0,-2.5199,-2.5226,-2.523,-2.5259,-2.5279,-2.5286,-2.5326,-2.5333,-2.5338,-2.5387,-2.5392,-2.5413,-2.5441,-2.5438,-2.5438,-2.5454,-2.5421,-2.544,-2.5435,-2.5436,-2.5431,-2.5424,-2.5417,-2.5504,-2.5504,-2.5504,0,0,-2.5156,-2.5178,-2.5175,-2.5194,-2.5223,-2.5248,-2.5247,-2.5284,-2.5299,-2.5305,-2.534,-2.5347,-2.537,-2.5387,-2.5399,-2.5359,-2.5385,-2.5363,-2.5327,-2.5321,-2.5315,-2.531,-2.5293,-2.5286,-2.536,-2.536,-2.536,0,-2.5121,-2.5133,-2.5171,-2.5174,-2.5185,-2.5228,-2.5225,-2.5241,-2.5273,-2.5279,-2.5297,-2.5323,-2.5345,-2.5346,-2.5335,-2.5345,-2.5343,-2.5358,-2.5313,-2.5308,-2.5303,-2.5288,-2.5282,-2.5357,-2.5357,-2.5357,-2.5358,0,-2.5087,-2.5095,-2.5089,-2.5117,-2.5128,-2.5128,-2.5164,-2.517,-2.5193,-2.5217,-2.522,-2.5248,-2.5267,-2.527,-2.5293,-2.5272,-2.5281,-2.5305,-2.5335,-2.5292,-2.5278,-2.5273,-2.5352,-2.5353,-2.5354,-2.5355,0,0,-2.5012,-2.5059,-2.5056,-2.5068,-2.5102,-2.5108,-2.5109,-2.5127,-2.513,-2.5151,-2.5151,-2.5167,-2.5189,-2.5202,-2.5228,-2.5223,-2.5185,-2.5247,-2.5248,-2.5232,-2.5161,-2.5141,-2.5134,-2.5204,-2.5203,-2.5202,-2.5158,0,-2.4974,-2.4977,-2.5009,-2.5004,-2.501,-2.505,-2.505,-2.507,-2.5091,-2.5099,-2.5123,-2.5132,-2.5161,-2.5169,-2.5166,-2.5191,-2.5171,-2.5195,-2.5203,-2.5203,-2.5193,-2.5127,-2.5107,-2.5064,-2.5153,-2.5152,-2.5151,0,-2.493,-2.4945,-2.4939,-2.4969,-2.4973,-2.4973,-2.499,-2.4998,-2.5021,-2.5036,-2.5049,-2.5077,-2.5079,-2.5108,-2.511,-2.5124,-2.513,-2.5142,-2.5141,-2.5142,-2.5173,-2.5124,-2.5051,-2.5044,-2.5143,-2.5144,-2.5145,0,-2.4872,-2.4892,-2.489,-2.4899,-2.4936,-2.4934,-2.4949,-2.4973,-2.498,-2.4996,-2.5001,-2.5016,-2.5024,-2.5035,-2.5066,-2.5085,-2.5063,-2.5095,-2.5075,-2.5074,-2.5068,-2.5067,-2.4992,-2.5074,-2.5074,-2.5074,-2.5074,0,-2.4825,-2.4819,-2.4864,-2.4863,-2.4857,-2.4893,-2.4886,-2.4905,-2.4925,-2.4927,-2.4964,-2.4965,-2.5007,-2.5012,-2.5037,-2.5033,-2.5037,-2.5048,-2.5054,-2.5044,-2.5042,-2.5047,-2.505,-2.5073,-2.5073,-2.5073,-2.5074,0,-2.476,-2.479,-2.479,-2.4824,-2.4832,-2.4825,-2.4854,-2.4853,-2.4876,-2.4878,-2.488,-2.4916,-2.4924,-2.4956,-2.4973,-2.4989,-2.4976,-2.4989,-2.4967,-2.4971,-2.4948,-2.4948,-2.4872,-2.4863,-2.4952,-2.4951,-2.495,0,-2.4727,-2.4723,-2.4755,-2.4758,-2.4771,-2.4777,-2.4784,-2.4819,-2.4825,-2.4849,-2.4845,-2.4855,-2.4866,-2.4876,-2.4903,-2.4915,-2.4928,-2.49,-2.493,-2.4918,-2.4924,-2.4923,-2.4922,-2.4893,-2.4892,-2.4891,-2.4891,0,-2.4665,-2.4679,-2.4688,-2.47,-2.4707,-2.472,-2.4734,-2.4735,-2.4773,-2.4778,-2.4786,-2.4793,-2.4808,-2.4818,-2.4833,-2.4848,-2.4875,-2.4881,-2.4876,-2.4865,-2.4851,-2.4855,-2.4948,-2.4882,-2.4883,-2.4884,-2.4884,-2.4884,-2.4614,-2.461,-2.4631,-2.4639,-2.4653,-2.4664,-2.4664,-2.4686,-2.4693,-2.4707,-2.4727,-2.4731,-2.4751,-2.4775,-2.4787,-2.4791,-2.4806,-2.48,-2.4798,-2.4796,-2.4789,-2.4851,-2.4794,-2.4794,-2.4795,-2.4795,-2.4795,0,-2.4551,-2.4565,-2.4572,-2.4589,-2.4594,-2.4618,-2.4634,-2.4637,-2.464,-2.4656,-2.4665,-2.4672,-2.468,-2.4706,-2.4717,-2.4714,-2.4726,-2.4715,-2.4715,-2.4717,-2.4776,-2.4778,-2.4705,-2.4705,-2.4705,-2.4705,-2.4705,-2.4705,-2.4519,-2.4514,-2.453,-2.4531,-2.4546,-2.455,-2.4556,-2.4566,-2.4579,-2.4585,-2.4591,-2.4608,-2.4627,-2.4639,-2.4647,-2.4654,-2.4656,-2.464,-2.4651,-2.4705,-2.4714,-2.4722,-2.4724,-2.4641,-2.4641,-2.4592,-2.4592,-2.4591]},{"header":{"parameterUnit":"m.s-1","parameterCategory":1,"la1":30.2991,"la2":30.254,"lo1":-89.0895,"lo2":-89.0444,"dy":0.0017,"dx":0.0017,"nx":28,"ny":28,"refTime":"2024-05-13T03:00:00:Z","depth":0,"parameterNumber":3,"parameterNumberName":"V-component_of_WINDS"},"data":[0,0,0,0,0,0,0,0,0,0,0,0,0,0,0,0,0,0,0,0,0,0,0,0,0,0,0,0,0,0,0,0,0,0,0,0,0,0,0,0,0,0,0,0,0,0,0,0,0,0,0,0,0,0,0,0,0,0,7.0015,7.0016,0,7.0139,7.0141,7.0142,7.0072,7.0068,7.0065,7.0061,7.0181,7.0188,7.0194,0,0,0,0,0,0,0,0,0,0,0,0,0,6.9706,6.9713,7.0015,7.0016,7.0018,7.0139,7.0141,7.0143,7.0072,7.0068,7.0064,7.006,7.0179,7.0187,7.0195,0,0,0,0,0,0,0,0,0,0,0,0,0,6.9837,6.9714,7.0014,6.9997,6.9997,7.0139,7.0141,7.0143,7.0073,7.0068,7.0063,7.0058,7.0177,7.0186,7.0196,7.0359,0,0,7.0225,7.0229,0,0,0,0,0,0,0,0,6.9829,6.9848,6.9998,6.9999,6.9999,7.0085,7.0076,7.0215,7.0074,7.0044,7.0061,7.0055,7.0153,7.0164,7.0199,7.0364,7.0369,7.0226,7.0232,7.0236,7.0239,0,0,0,0,0,0,0,6.982,6.9842,7.0064,7.0001,7.0001,6.9981,6.9993,7.0102,7.0126,7.0046,7.0041,7.0058,7.0152,7.019,7.0201,7.0371,7.0226,7.0234,7.024,7.0244,7.0673,7.0678,0,0,0,0,0,0,6.9814,6.9835,7.006,7.0067,6.99,6.999,7.0005,7.0062,7.0124,7.0129,7.0062,7.0054,7.0176,7.019,7.0205,7.0397,7.0236,7.0245,7.025,7.0667,7.0674,7.068,0,0,0,0,0,0,6.9807,6.9834,7.0055,6.995,6.9977,7.0001,7.0066,7.0067,7.0105,7.0136,7.0139,7.0097,7.0172,7.0191,7.0321,7.04,7.0249,7.0258,7.0661,7.0669,7.0677,7.0784,0,0,0,0,0,0,6.9799,6.9833,6.9897,6.9952,6.9983,7.0171,7.0072,7.0074,7.0123,7.0113,7.017,7.0174,7.017,7.0307,7.033,7.0411,7.0265,7.0653,7.0664,7.0674,7.0774,7.0795,7.0814,0,0,0,0,0,6.9788,6.9921,6.9901,6.9928,7.0064,7.0176,7.0193,7.0188,7.013,7.0193,7.0212,7.0172,7.0389,7.0321,7.0346,7.0431,7.0648,7.0661,7.0674,7.0765,7.0791,7.0814,0,0,0,0,0,0,6.9872,6.9928,6.9906,7.0062,7.0115,7.0164,7.0244,7.0216,7.0285,7.0273,7.0261,7.0275,7.0409,7.0433,7.0356,7.059,7.0509,7.0527,7.0569,7.0595,7.0614,7.0604,7.0273,0,0,0,0,0,6.9909,6.9999,7.0042,7.0175,7.0203,7.0219,7.0268,7.0259,7.0313,7.0334,7.0363,7.0415,7.0493,7.0546,7.0621,7.0778,7.0787,7.0849,7.0869,7.0885,7.09,7.0981,7.1008,7.0722,7.0722,7.0721,0,0,6.9986,7.0028,7.0084,7.0193,7.0233,7.0322,7.0238,7.0337,7.0402,7.0348,7.0472,7.0495,7.0551,7.0695,7.0759,7.0719,7.0981,7.0901,7.0914,7.092,7.0997,7.1024,7.1048,7.073,7.0729,7.0727,0,0,7.0171,7.0213,7.0327,7.037,7.0432,7.0442,7.047,7.0523,7.0537,7.0662,7.0622,7.0698,7.0836,7.0877,7.0916,7.1115,7.1079,7.114,7.1243,7.1323,7.1345,7.1365,7.1432,7.1457,7.1155,7.1156,7.1156,0,7.0257,7.0393,7.0388,7.049,7.0537,7.0495,7.0608,7.0649,7.0732,7.0764,7.0719,7.0889,7.0924,7.1075,7.1123,7.1158,7.1185,7.1132,7.1343,7.1363,7.1381,7.1445,7.1471,7.1162,7.1161,7.1161,7.116,0,7.0494,7.0589,7.0673,7.0756,7.0813,7.092,7.0929,7.0986,7.0973,7.0986,7.1111,7.1152,7.1233,7.1269,7.1256,7.1417,7.139,7.1345,7.1262,7.1415,7.1475,7.15,7.1172,7.1169,7.1167,7.1166,0,0,7.0734,7.0814,7.0845,7.0881,7.0947,7.1018,7.1122,7.1203,7.1251,7.131,7.1393,7.1511,7.1469,7.1513,7.1504,7.1574,7.1725,7.1519,7.152,7.1553,7.19,7.1932,7.196,7.1703,7.1708,7.1712,7.1894,0,7.0921,7.1105,7.1103,7.1271,7.1356,7.1317,7.1407,7.1455,7.1471,7.1543,7.1558,7.164,7.1581,7.1606,7.1674,7.1692,7.1794,7.168,7.1777,7.178,7.1761,7.1992,7.2026,7.2197,7.1918,7.1922,7.1925,0,7.1163,7.1231,7.1409,7.146,7.1496,7.1577,7.1649,7.1721,7.1773,7.1779,7.1828,7.1808,7.191,7.1827,7.1964,7.1886,7.1926,7.1941,7.1947,7.1953,7.186,7.2001,7.2252,7.2276,7.1962,7.1959,7.1957,0,7.1316,7.1452,7.1575,7.1608,7.1672,7.1729,7.1758,7.1806,7.1854,7.1917,7.1947,7.2021,7.2061,7.2117,7.2116,7.2056,7.2254,7.2171,7.2258,7.2258,7.2298,7.2295,7.2555,7.233,7.233,7.2329,7.2329,0,7.1522,7.1631,7.1644,7.172,7.184,7.1836,7.1954,7.1976,7.2019,7.2096,7.2067,7.2138,7.2134,7.2206,7.2206,7.2318,7.2337,7.2341,7.2339,7.2342,7.2341,7.2365,7.2352,7.2336,7.2335,7.2333,7.2332,0,7.1712,7.1726,7.1857,7.1907,7.1922,7.2008,7.2049,7.2119,7.2132,7.2229,7.2251,7.2271,7.2353,7.2359,7.2454,7.2454,7.2588,7.2575,7.2571,7.2568,7.2652,7.2643,7.2934,7.2971,7.2725,7.2728,7.273,0,7.1842,7.1925,7.1984,7.2035,7.2067,7.2149,7.2198,7.2196,7.2248,7.2314,7.2375,7.2456,7.252,7.2653,7.2674,7.2746,7.2731,7.2829,7.2742,7.2741,7.2728,7.2722,7.2729,7.2844,7.2847,7.2849,7.2851,0,7.2069,7.2071,7.2145,7.2221,7.2281,7.234,7.2395,7.2437,7.2441,7.2501,7.2586,7.2636,7.2734,7.2813,7.2883,7.2909,7.288,7.2879,7.2902,7.2904,7.2897,7.2898,7.2613,7.2871,7.2869,7.2868,7.2867,7.2866,7.223,7.2301,7.2354,7.2436,7.2477,7.2529,7.2597,7.2618,7.269,7.2771,7.2765,7.2859,7.2906,7.2998,7.303,7.31,7.3067,7.3101,7.3109,7.3117,7.3124,7.2889,7.3113,7.3113,7.3112,7.3112,7.3111,0,7.2452,7.2484,7.256,7.2639,7.2703,7.2673,7.2732,7.2786,7.287,7.2918,7.2982,7.3078,7.3154,7.3181,7.3254,7.3305,7.3293,7.3324,7.3318,7.3324,7.3152,7.3123,7.3332,7.3332,7.3332,7.3332,7.3332,7.3332,7.2576,7.2693,7.2702,7.2838,7.2868,7.2962,7.2997,7.3043,7.3082,7.3191,7.3255,7.3273,7.3311,7.3387,7.3454,7.346,7.3486,7.3522,7.3521,7.3359,7.3337,7.3315,7.3288,7.3529,7.3529,7.3687,7.3689,7.369]}]]